| time (UTC) | temp C | wind direction | speed KPH | gust KPH | rain 1hr cm | rain 24hr cm | rain mn cm | humidity % | barometer mb |
| 20260507191903 | 7 | 359 | 0.0 | 1.6 | 0.00 | 1.19 | 1.19 | 95 | 1016.1 |
| 20260507191403 | 7 | 359 | 0.0 | 1.6 | 0.00 | 1.19 | 1.19 | 95 | 1016.1 |
| 20260507190903 | 7 | 8 | 0.0 | 8.0 | 0.00 | 1.19 | 1.19 | 95 | 1016.0 |
| 20260507190403 | 7 | 7 | 0.0 | 8.0 | 0.00 | 1.19 | 1.19 | 95 | 1015.9 |
| 20260507190222 | 7 | 0 | 0.0 | 4.8 | 0.00 | 1.19 | 1.19 | 95 | 1015.9 |
| 20260507185358 | 7 | 356 | 0.0 | 0.0 | 0.00 | 1.19 | 1.19 | 95 | 1015.8 |
| 20260507184856 | 7 | 0 | 0.0 | 8.0 | 0.00 | 1.19 | 1.19 | 95 | 1015.8 |
| 20260507184350 | 7 | 1 | 0.0 | 8.0 | 0.00 | 1.19 | 1.19 | 95 | 1015.7 |
| 20260507183850 | 7 | 359 | 0.0 | 6.4 | 0.00 | 1.19 | 1.19 | 95 | 1015.6 |
| 20260507183338 | 7 | 1 | 1.6 | 9.7 | 0.00 | 1.19 | 1.19 | 95 | 1015.6 |
| 20260507183138 | 7 | 9 | 1.6 | 12.9 | 0.00 | 1.19 | 1.19 | 95 | 1015.5 |
| 20260507182335 | 7 | 0 | 1.6 | 12.9 | 0.03 | 1.19 | 1.19 | 95 | 1015.4 |
| 20260507181832 | 7 | 0 | 1.6 | 9.7 | 0.03 | 1.19 | 1.19 | 95 | 1015.4 |
| 20260507181331 | 7 | 321 | 0.0 | 4.8 | 0.03 | 1.19 | 1.19 | 95 | 1015.3 |
| 20260507180822 | 8 | 311 | 0.0 | 3.2 | 0.03 | 1.19 | 1.19 | 95 | 1015.3 |
| 20260507180319 | 7 | 338 | 0.0 | 4.8 | 0.03 | 1.19 | 1.19 | 95 | 1015.2 |
| 20260507175818 | 8 | 349 | 0.0 | 8.0 | 0.03 | 1.19 | 1.19 | 95 | 1015.2 |
| 20260507175614 | 7 | 353 | 0.0 | 8.0 | 0.03 | 1.19 | 1.19 | 95 | 1015.2 |
| 20260507174812 | 8 | 1 | 1.6 | 9.7 | 0.03 | 1.19 | 1.19 | 95 | 1015.2 |
| 20260507174313 | 8 | 3 | 1.6 | 9.7 | 0.03 | 1.19 | 1.19 | 95 | 1015.1 |
| 20260507173804 | 8 | 1 | 1.6 | 8.0 | 0.03 | 1.19 | 1.19 | 95 | 1015.1 |
| 20260507173608 | 8 | 1 | 1.6 | 8.0 | 0.03 | 1.19 | 1.19 | 95 | 1015.0 |
| 20260507172805 | 8 | 0 | 1.6 | 8.0 | 0.03 | 1.19 | 1.19 | 94 | 1015.0 |
| 20260507172307 | 8 | 7 | 1.6 | 8.0 | 0.00 | 1.17 | 1.17 | 94 | 1014.9 |
| 20260507172106 | 8 | 10 | 1.6 | 8.0 | 0.00 | 1.17 | 1.17 | 95 | 1014.9 |
| 20260507171558 | 8 | 334 | 1.6 | 6.4 | 0.00 | 1.17 | 1.17 | 95 | 1014.9 |
| 20260507170754 | 8 | 295 | 0.0 | 6.4 | 0.00 | 1.17 | 1.17 | 95 | 1014.9 |
| 20260507170553 | 8 | 15 | 1.6 | 9.7 | 0.00 | 1.17 | 1.17 | 95 | 1014.8 |
| 20260507165753 | 8 | 351 | 0.0 | 9.7 | 0.00 | 1.17 | 1.17 | 95 | 1014.8 |
| 20260507165252 | 8 | 357 | 0.0 | 0.0 | 0.03 | 1.17 | 1.17 | 95 | 1014.7 |
| 20260507164752 | 8 | 357 | 0.0 | 6.4 | 0.03 | 1.17 | 1.17 | 94 | 1014.7 |
| 20260507164243 | 8 | 357 | 0.0 | 8.0 | 0.03 | 1.17 | 1.17 | 94 | 1014.7 |
| 20260507163734 | 8 | 359 | 1.6 | 9.7 | 0.05 | 1.17 | 1.17 | 95 | 1014.6 |
| 20260507163233 | 8 | 331 | 3.2 | 12.9 | 0.05 | 1.17 | 1.17 | 95 | 1014.6 |
| 20260507162734 | 8 | 0 | 1.6 | 12.9 | 0.05 | 1.17 | 1.17 | 95 | 1014.6 |
| 20260507162226 | 8 | 9 | 1.6 | 11.3 | 0.05 | 1.17 | 1.17 | 95 | 1014.6 |
| 20260507161718 | 8 | 333 | 1.6 | 8.0 | 0.05 | 1.17 | 1.17 | 94 | 1014.4 |
| 20260507161218 | 8 | 1 | 1.6 | 9.7 | 0.05 | 1.17 | 1.17 | 94 | 1014.4 |
| 20260507160713 | 8 | 16 | 1.6 | 11.3 | 0.05 | 1.17 | 1.17 | 94 | 1014.4 |
| 20260507160208 | 8 | 359 | 1.6 | 11.3 | 0.05 | 1.17 | 1.17 | 94 | 1014.5 |
| 20260507155705 | 8 | 326 | 1.6 | 9.7 | 0.10 | 1.17 | 1.17 | 94 | 1014.5 |
| 20260507155206 | 8 | 0 | 1.6 | 9.7 | 0.08 | 1.17 | 1.17 | 94 | 1014.5 |
| 20260507154706 | 8 | 359 | 1.6 | 9.7 | 0.10 | 1.17 | 1.17 | 94 | 1014.4 |
| 20260507154201 | 8 | 359 | 1.6 | 9.7 | 0.13 | 1.17 | 1.17 | 94 | 1014.4 |
| 20260507153703 | 8 | 30 | 1.6 | 9.7 | 0.15 | 1.14 | 1.14 | 94 | 1014.4 |
| 20260507153202 | 8 | 357 | 1.6 | 9.7 | 0.15 | 1.14 | 1.14 | 94 | 1014.4 |
| 20260507152702 | 8 | 0 | 0.0 | 8.0 | 0.15 | 1.14 | 1.14 | 94 | 1014.4 |
| 20260507152203 | 8 | 0 | 1.6 | 8.0 | 0.13 | 1.12 | 1.12 | 94 | 1014.3 |
| 20260507151703 | 8 | 1 | 1.6 | 11.3 | 0.15 | 1.12 | 1.12 | 94 | 1014.4 |
| 20260507151158 | 8 | 12 | 1.6 | 11.3 | 0.15 | 1.12 | 1.12 | 94 | 1014.3 |
| 20260507150650 | 8 | 33 | 1.6 | 11.3 | 0.15 | 1.12 | 1.12 | 94 | 1014.3 |
| 20260507150140 | 8 | 0 | 1.6 | 9.7 | 0.15 | 1.12 | 1.09 | 94 | 1014.2 |
| 20260507145930 | 8 | 359 | 1.6 | 11.3 | 0.10 | 1.09 | 1.09 | 94 | 1014.3 |
| 20260507145132 | 8 | 29 | 1.6 | 11.3 | 0.10 | 1.09 | 1.07 | 94 | 1014.2 |
| 20260507144631 | 8 | 9 | 3.2 | 8.0 | 0.05 | 1.04 | 1.04 | 94 | 1014.1 |
| 20260507144130 | 8 | 21 | 1.6 | 8.0 | 0.05 | 1.04 | 1.02 | 94 | 1014.0 |
| 20260507143633 | 8 | 359 | 0.0 | 6.4 | 0.03 | 0.99 | 0.99 | 94 | 1014.0 |
| 20260507143131 | 8 | 6 | 0.0 | 6.4 | 0.03 | 0.99 | 0.99 | 93 | 1014.1 |
| 20260507142633 | 8 | 357 | 1.6 | 9.7 | 0.03 | 0.99 | 0.99 | 93 | 1014.0 |
| 20260507142134 | 8 | 349 | 1.6 | 9.7 | 0.03 | 0.99 | 0.99 | 93 | 1014.1 |
| 20260507141631 | 8 | 354 | 1.6 | 9.7 | 0.00 | 0.99 | 0.99 | 93 | 1014.1 |
| 20260507141442 | 8 | 285 | 1.6 | 9.7 | 0.00 | 0.99 | 0.99 | 93 | 1014.1 |
| 20260507140634 | 8 | 334 | 1.6 | 8.0 | 0.00 | 0.99 | 0.99 | 93 | 1014.1 |
| 20260507140131 | 8 | 15 | 0.0 | 8.0 | 0.00 | 0.99 | 0.99 | 93 | 1014.0 |
| 20260507135634 | 8 | 358 | 0.0 | 9.7 | 0.00 | 0.99 | 0.99 | 93 | 1014.0 |
| 20260507135430 | 8 | 345 | 0.0 | 9.7 | 0.00 | 0.99 | 0.99 | 92 | 1014.0 |
| 20260507134631 | 8 | 12 | 0.0 | 8.0 | 0.00 | 0.99 | 0.99 | 92 | 1013.9 |
| 20260507134132 | 8 | 356 | 0.0 | 8.0 | 0.00 | 0.99 | 0.99 | 92 | 1013.8 |
| 20260507133633 | 8 | 309 | 0.0 | 8.0 | 0.00 | 0.99 | 0.99 | 92 | 1013.8 |
| 20260507133135 | 8 | 328 | 0.0 | 8.0 | 0.00 | 0.99 | 0.99 | 92 | 1013.7 |
| 20260507132633 | 8 | 352 | 3.2 | 9.7 | 0.00 | 0.99 | 0.99 | 91 | 1013.7 |
| 20260507132136 | 8 | 346 | 4.8 | 14.5 | 0.00 | 0.99 | 0.99 | 91 | 1013.7 |
| 20260507131934 | 8 | 1 | 4.8 | 14.5 | 0.00 | 0.99 | 0.99 | 91 | 1013.7 |
| 20260507131132 | 8 | 16 | 3.2 | 12.9 | 0.00 | 0.99 | 0.99 | 91 | 1013.6 |
| 20260507130928 | 8 | 11 | 3.2 | 12.9 | 0.00 | 0.99 | 0.99 | 91 | 1013.5 |
| 20260507130131 | 8 | 23 | 3.2 | 12.9 | 0.00 | 0.99 | 0.99 | 91 | 1013.4 |
| 20260507125631 | 8 | 6 | 3.2 | 12.9 | 0.00 | 0.99 | 0.99 | 91 | 1013.4 |
| 20260507125123 | 9 | 356 | 3.2 | 9.7 | 0.00 | 0.99 | 0.99 | 90 | 1013.3 |
| 20260507124614 | 9 | 32 | 3.2 | 9.7 | 0.00 | 0.99 | 0.99 | 90 | 1013.2 |
| 20260507124106 | 9 | 58 | 4.8 | 12.9 | 0.00 | 0.99 | 0.99 | 89 | 1013.1 |
| 20260507123605 | 9 | 27 | 6.4 | 17.7 | 0.00 | 0.99 | 0.99 | 89 | 1013.0 |
| 20260507123148 | 9 | 89 | 4.8 | 17.7 | 0.00 | 0.99 | 0.99 | 90 | 1013.0 |
| 20260507122105 | 8 | 1 | 3.2 | 11.3 | 0.00 | 0.99 | 0.99 | 91 | 1013.0 |
| 20260507121604 | 8 | 60 | 4.8 | 14.5 | 0.00 | 0.99 | 0.99 | 91 | 1012.9 |
| 20260507121107 | 8 | 6 | 4.8 | 14.5 | 0.00 | 0.99 | 0.99 | 91 | 1012.9 |
| 20260507120604 | 8 | 41 | 1.6 | 12.9 | 0.00 | 0.99 | 0.99 | 91 | 1012.9 |
| 20260507120110 | 9 | 34 | 1.6 | 12.9 | 0.00 | 0.99 | 0.99 | 91 | 1012.9 |
| 20260507115554 | 9 | 6 | 4.8 | 14.5 | 0.00 | 0.99 | 0.99 | 91 | 1012.8 |
| 20260507115054 | 9 | 32 | 6.4 | 14.5 | 0.00 | 0.99 | 0.99 | 91 | 1012.7 |
| 20260507114852 | 9 | 9 | 3.2 | 12.9 | 0.00 | 0.99 | 0.99 | 91 | 1012.7 |
| 20260507114050 | 8 | 47 | 3.2 | 12.9 | 0.00 | 0.99 | 0.99 | 91 | 1012.7 |
| 20260507113545 | 9 | 1 | 4.8 | 12.9 | 0.00 | 0.99 | 0.99 | 91 | 1012.7 |
| 20260507113044 | 9 | 1 | 3.2 | 12.9 | 0.00 | 0.99 | 0.99 | 91 | 1012.7 |
| 20260507112544 | 9 | 13 | 3.2 | 11.3 | 0.00 | 0.99 | 0.99 | 91 | 1012.6 |
| 20260507112335 | 9 | 55 | 3.2 | 14.5 | 0.00 | 0.99 | 0.99 | 91 | 1012.6 |
| 20260507111535 | 9 | 54 | 1.6 | 14.5 | 0.00 | 0.99 | 0.99 | 92 | 1012.6 |
| 20260507111033 | 9 | 19 | 4.8 | 12.9 | 0.00 | 0.99 | 0.99 | 91 | 1012.6 |
| 20260507110836 | 9 | 1 | 6.4 | 16.1 | 0.00 | 0.99 | 0.99 | 91 | 1012.5 |
| 20260507110035 | 9 | 35 | 4.8 | 16.1 | 0.03 | 0.99 | 0.99 | 92 | 1012.6 |
| 20260507105533 | 9 | 53 | 3.2 | 12.9 | 0.03 | 0.99 | 0.99 | 92 | 1012.5 |
| 20260507105033 | 8 | 20 | 4.8 | 14.5 | 0.03 | 0.99 | 0.99 | 92 | 1012.4 |
| 20260507104819 | 8 | 356 | 4.8 | 16.1 | 0.03 | 0.99 | 0.99 | 92 | 1012.4 |
| 20260507104308 | 9 | 35 | 6.4 | 16.1 | 0.03 | 0.99 | 0.99 | 92 | 1012.4 |
| 20260507103505 | 9 | 32 | 6.4 | 14.5 | 0.03 | 0.99 | 0.99 | 92 | 1012.3 |
| 20260507103256 | 8 | 26 | 6.4 | 14.5 | 0.03 | 0.99 | 0.99 | 93 | 1012.3 |
| 20260507102254 | 8 | 18 | 4.8 | 11.3 | 0.03 | 0.99 | 0.99 | 94 | 1012.2 |
| 20260507101800 | 8 | 42 | 4.8 | 11.3 | 0.03 | 0.99 | 0.99 | 94 | 1012.2 |
| 20260507101004 | 8 | 352 | 4.8 | 11.3 | 0.03 | 0.99 | 0.99 | 93 | 1012.2 |
| 20260507100505 | 8 | 28 | 4.8 | 11.3 | 0.03 | 0.97 | 0.97 | 94 | 1012.2 |
| 20260507100008 | 8 | 31 | 3.2 | 11.3 | 0.05 | 0.97 | 0.97 | 94 | 1012.1 |
| 20260507095504 | 8 | 358 | 3.2 | 11.3 | 0.05 | 0.97 | 0.97 | 94 | 1012.1 |
| 20260507095257 | 8 | 13 | 3.2 | 12.9 | 0.10 | 0.97 | 0.97 | 94 | 1012.0 |
| 20260507094504 | 8 | 13 | 3.2 | 16.1 | 0.13 | 0.97 | 0.97 | 94 | 1012.0 |
| 20260507094000 | 8 | 6 | 3.2 | 12.9 | 0.13 | 0.97 | 0.97 | 94 | 1012.0 |
| 20260507093458 | 8 | 41 | 3.2 | 12.9 | 0.15 | 0.97 | 0.97 | 94 | 1011.9 |
| 20260507092959 | 8 | 359 | 3.2 | 12.9 | 0.15 | 0.97 | 0.97 | 95 | 1011.9 |
| 20260507092450 | 8 | 1 | 3.2 | 12.9 | 0.18 | 0.97 | 0.97 | 95 | 1011.9 |
| 20260507091942 | 8 | 29 | 1.6 | 8.0 | 0.20 | 0.97 | 0.97 | 95 | 1011.7 |
| 20260507091434 | 8 | 0 | 3.2 | 11.3 | 0.23 | 0.97 | 0.97 | 95 | 1011.7 |
| 20260507091231 | 8 | 8 | 3.2 | 11.3 | 0.23 | 0.97 | 0.97 | 95 | 1011.7 |
| 20260507090431 | 7 | 1 | 1.6 | 8.0 | 0.23 | 0.94 | 0.94 | 95 | 1011.6 |
| 20260507085930 | 7 | 37 | 1.6 | 9.7 | 0.23 | 0.91 | 0.91 | 95 | 1011.6 |
| 20260507085422 | 7 | 1 | 3.2 | 9.7 | 0.18 | 0.89 | 0.89 | 94 | 1011.5 |
| 20260507084912 | 7 | 1 | 3.2 | 11.3 | 0.15 | 0.86 | 0.86 | 95 | 1011.4 |
| 20260507084407 | 7 | 19 | 3.2 | 16.1 | 0.15 | 0.84 | 0.84 | 95 | 1011.3 |
| 20260507083906 | 7 | 13 | 3.2 | 16.1 | 0.15 | 0.84 | 0.84 | 95 | 1011.2 |
| 20260507083406 | 7 | 17 | 3.2 | 14.5 | 0.15 | 0.81 | 0.81 | 95 | 1011.2 |
| 20260507082906 | 7 | 335 | 3.2 | 12.9 | 0.15 | 0.79 | 0.79 | 95 | 1011.2 |
| 20260507082406 | 7 | 11 | 3.2 | 12.9 | 0.13 | 0.79 | 0.79 | 95 | 1011.1 |
| 20260507081905 | 7 | 314 | 3.2 | 12.9 | 0.13 | 0.76 | 0.76 | 95 | 1011.2 |
| 20260507081405 | 7 | 26 | 3.2 | 12.9 | 0.10 | 0.74 | 0.74 | 95 | 1011.1 |
| 20260507080905 | 7 | 347 | 1.6 | 9.7 | 0.08 | 0.71 | 0.71 | 95 | 1010.9 |
| 20260507080403 | 8 | 25 | 3.2 | 9.7 | 0.10 | 0.71 | 0.71 | 95 | 1010.8 |
| 20260507080208 | 8 | 41 | 3.2 | 8.0 | 0.08 | 0.71 | 0.71 | 95 | 1010.8 |
| 20260507075405 | 8 | 10 | 3.2 | 9.7 | 0.08 | 0.71 | 0.71 | 95 | 1010.7 |
| 20260507074903 | 8 | 38 | 3.2 | 9.7 | 0.08 | 0.71 | 0.69 | 95 | 1010.7 |
| 20260507074404 | 7 | 35 | 1.6 | 9.7 | 0.05 | 0.69 | 0.69 | 95 | 1010.7 |
| 20260507073902 | 8 | 26 | 3.2 | 14.5 | 0.05 | 0.69 | 0.69 | 95 | 1010.6 |
| 20260507073402 | 7 | 59 | 3.2 | 14.5 | 0.05 | 0.69 | 0.69 | 95 | 1010.6 |
| 20260507072906 | 8 | 44 | 0.0 | 8.0 | 0.05 | 0.69 | 0.66 | 95 | 1010.5 |
| 20260507072402 | 8 | 59 | 0.0 | 8.0 | 0.05 | 0.69 | 0.64 | 95 | 1010.5 |
| 20260507071905 | 8 | 2 | 0.0 | 8.0 | 0.03 | 0.66 | 0.64 | 95 | 1010.5 |
| 20260507071406 | 7 | 56 | 1.6 | 9.7 | 0.03 | 0.66 | 0.64 | 95 | 1010.4 |
| 20260507070905 | 7 | 51 | 3.2 | 9.7 | 0.03 | 0.66 | 0.64 | 95 | 1010.3 |
| 20260507070405 | 7 | 16 | 3.2 | 9.7 | 0.00 | 0.64 | 0.61 | 95 | 1010.3 |
| 20260507065903 | 7 | 3 | 3.2 | 9.7 | 0.00 | 0.64 | 0.61 | 95 | 1010.2 |
| 20260507065403 | 7 | 14 | 1.6 | 9.7 | 0.00 | 0.64 | 0.61 | 95 | 1010.2 |
| 20260507065203 | 7 | 20 | 1.6 | 9.7 | 0.00 | 0.64 | 0.61 | 95 | 1010.2 |
| 20260507064654 | 7 | 40 | 1.6 | 9.7 | 0.00 | 0.64 | 0.61 | 95 | 1010.1 |
| 20260507064202 | 7 | 21 | 1.6 | 9.7 | 0.00 | 0.64 | 0.61 | 95 | 1010.1 |
| 20260507063403 | 7 | 17 | 1.6 | 8.0 | 0.00 | 0.64 | 0.61 | 95 | 1010.0 |
| 20260507062903 | 7 | 30 | 1.6 | 9.7 | 0.00 | 0.64 | 0.61 | 95 | 1009.8 |
| 20260507062405 | 7 | 39 | 3.2 | 11.3 | 0.00 | 0.64 | 0.61 | 95 | 1009.8 |
| 20260507062159 | 7 | 359 | 3.2 | 12.9 | 0.00 | 0.64 | 0.61 | 95 | 1009.8 |
| 20260507061358 | 7 | 22 | 1.6 | 12.9 | 0.00 | 0.64 | 0.61 | 95 | 1009.8 |
| 20260507060852 | 7 | 1 | 1.6 | 9.7 | 0.00 | 0.64 | 0.61 | 95 | 1009.7 |
| 20260507060352 | 7 | 359 | 1.6 | 8.0 | 0.00 | 0.64 | 0.61 | 95 | 1009.8 |
| 20260507055851 | 7 | 353 | 1.6 | 11.3 | 0.00 | 0.64 | 0.61 | 95 | 1009.7 |
| 20260507055639 | 7 | 351 | 0.0 | 11.3 | 0.00 | 0.64 | 0.61 | 95 | 1009.6 |
| 20260507054834 | 7 | 4 | 1.6 | 11.3 | 0.00 | 0.64 | 0.61 | 95 | 1009.6 |
| 20260507054333 | 7 | 1 | 1.6 | 12.9 | 0.00 | 0.64 | 0.61 | 95 | 1009.6 |
| 20260507053833 | 7 | 0 | 1.6 | 12.9 | 0.00 | 0.64 | 0.61 | 95 | 1009.4 |
| 20260507053331 | 7 | 2 | 1.6 | 9.7 | 0.00 | 0.64 | 0.61 | 95 | 1009.4 |
| 20260507052831 | 7 | 0 | 0.0 | 9.7 | 0.00 | 0.64 | 0.61 | 95 | 1009.4 |
| 20260507052334 | 7 | 37 | 0.0 | 8.0 | 0.00 | 0.64 | 0.61 | 95 | 1009.4 |
| 20260507051837 | 7 | 1 | 1.6 | 9.7 | 0.00 | 0.64 | 0.61 | 95 | 1009.3 |
| 20260507051331 | 7 | 0 | 1.6 | 9.7 | 0.00 | 0.64 | 0.61 | 95 | 1009.4 |
| 20260507051130 | 7 | 356 | 1.6 | 8.0 | 0.00 | 0.64 | 0.61 | 95 | 1009.4 |
| 20260507050332 | 7 | 354 | 1.6 | 6.4 | 0.00 | 0.64 | 0.61 | 95 | 1009.3 |
| 20260507045832 | 7 | 343 | 0.0 | 9.7 | 0.00 | 0.64 | 0.61 | 95 | 1009.2 |
| 20260507045335 | 7 | 359 | 0.0 | 9.7 | 0.00 | 0.64 | 0.61 | 95 | 1009.2 |
| 20260507044831 | 7 | 30 | 1.6 | 8.0 | 0.00 | 0.64 | 0.61 | 95 | 1009.1 |
| 20260507044331 | 7 | 359 | 1.6 | 8.0 | 0.00 | 0.64 | 0.61 | 95 | 1009.1 |
| 20260507043833 | 7 | 12 | 1.6 | 9.7 | 0.00 | 0.64 | 0.61 | 95 | 1009.0 |
| 20260507043331 | 7 | 2 | 0.0 | 9.7 | 0.00 | 0.64 | 0.61 | 95 | 1008.9 |
| 20260507043133 | 7 | 25 | 1.6 | 9.7 | 0.00 | 0.64 | 0.61 | 95 | 1008.9 |
| 20260507042331 | 7 | 1 | 3.2 | 11.3 | 0.00 | 0.64 | 0.61 | 95 | 1008.8 |
| 20260507042139 | 8 | 1 | 1.6 | 11.3 | 0.00 | 0.64 | 0.61 | 95 | 1008.7 |
| 20260507041332 | 8 | 4 | 0.0 | 9.7 | 0.00 | 0.64 | 0.61 | 95 | 1008.7 |
| 20260507040832 | 8 | 347 | 0.0 | 6.4 | 0.00 | 0.64 | 0.61 | 95 | 1008.6 |
| 20260507040620 | 8 | 8 | 0.0 | 1.6 | 0.00 | 0.64 | 0.61 | 95 | 1008.5 |
| 20260507035831 | 8 | 16 | 0.0 | 6.4 | 0.03 | 0.64 | 0.61 | 95 | 1008.5 |
| 20260507035627 | 8 | 16 | 1.6 | 8.0 | 0.03 | 0.64 | 0.61 | 95 | 1008.4 |
| 20260507034913 | 8 | 11 | 1.6 | 8.0 | 0.03 | 0.64 | 0.61 | 95 | 1008.3 |
| 20260507033834 | 8 | 359 | 1.6 | 12.9 | 0.03 | 0.64 | 0.61 | 95 | 1008.2 |
| 20260507033334 | 8 | 1 | 0.0 | 8.0 | 0.05 | 0.64 | 0.61 | 95 | 1008.2 |
| 20260507032834 | 8 | 8 | 0.0 | 8.0 | 0.05 | 0.64 | 0.61 | 95 | 1008.2 |
| 20260507032333 | 8 | 30 | 1.6 | 8.0 | 0.05 | 0.64 | 0.61 | 95 | 1008.1 |
| 20260507031833 | 8 | 354 | 1.6 | 8.0 | 0.08 | 0.64 | 0.61 | 95 | 1008.1 |
| 20260507031334 | 8 | 4 | 3.2 | 14.5 | 0.10 | 0.64 | 0.61 | 95 | 1008.0 |
| 20260507030834 | 8 | 5 | 3.2 | 14.5 | 0.13 | 0.64 | 0.61 | 95 | 1008.0 |
| 20260507030334 | 8 | 359 | 1.6 | 12.9 | 0.13 | 0.64 | 0.61 | 95 | 1008.0 |
| 20260507025824 | 8 | 1 | 1.6 | 9.7 | 0.13 | 0.61 | 0.61 | 95 | 1008.0 |
| 20260507025324 | 8 | 46 | 1.6 | 8.0 | 0.15 | 0.61 | 0.61 | 95 | 1007.9 |
| 20260507024822 | 8 | 67 | 3.2 | 11.3 | 0.15 | 0.61 | 0.61 | 94 | 1007.9 |
| 20260507024322 | 8 | 338 | 3.2 | 14.5 | 0.20 | 0.61 | 0.61 | 94 | 1007.8 |
| 20260507024118 | 8 | 353 | 3.2 | 14.5 | 0.23 | 0.61 | 0.61 | 94 | 1007.7 |
| 20260507023320 | 8 | 0 | 3.2 | 11.3 | 0.23 | 0.61 | 0.58 | 94 | 1007.6 |
| 20260507022820 | 8 | 8 | 4.8 | 12.9 | 0.25 | 0.58 | 0.56 | 94 | 1007.5 |
| 20260507022318 | 8 | 25 | 6.4 | 14.5 | 0.28 | 0.58 | 0.56 | 94 | 1007.4 |
| 20260507022126 | 8 | 22 | 4.8 | 14.5 | 0.30 | 0.56 | 0.53 | 94 | 1007.5 |
| 20260507021307 | 8 | 27 | 3.2 | 12.9 | 0.33 | 0.53 | 0.51 | 94 | 1007.5 |
| 20260507020806 | 8 | 6 | 4.8 | 14.5 | 0.33 | 0.51 | 0.51 | 94 | 1007.4 |
| 20260507020307 | 8 | 20 | 6.4 | 14.5 | 0.33 | 0.51 | 0.48 | 94 | 1007.5 |
| 20260507015805 | 8 | 39 | 4.8 | 12.9 | 0.33 | 0.51 | 0.46 | 94 | 1007.5 |
| 20260507015307 | 8 | 0 | 3.2 | 14.5 | 0.28 | 0.46 | 0.43 | 94 | 1007.5 |
| 20260507014804 | 8 | 25 | 3.2 | 14.5 | 0.30 | 0.46 | 0.43 | 94 | 1007.5 |
| 20260507014303 | 8 | 34 | 3.2 | 12.9 | 0.28 | 0.43 | 0.38 | 94 | 1007.6 |
| 20260507013803 | 8 | 4 | 3.2 | 11.3 | 0.23 | 0.38 | 0.36 | 94 | 1007.6 |
| 20260507013306 | 8 | 31 | 3.2 | 12.9 | 0.23 | 0.36 | 0.33 | 94 | 1007.6 |
| 20260507012805 | 8 | 15 | 3.2 | 12.9 | 0.23 | 0.33 | 0.30 | 94 | 1007.6 |
| 20260507012306 | 8 | 0 | 4.8 | 12.9 | 0.20 | 0.30 | 0.28 | 94 | 1007.5 |
| 20260507011805 | 8 | 32 | 3.2 | 12.9 | 0.18 | 0.25 | 0.23 | 93 | 1007.5 |
| 20260507011304 | 8 | 10 | 4.8 | 12.9 | 0.15 | 0.23 | 0.20 | 93 | 1007.5 |
| 20260507010806 | 8 | 1 | 4.8 | 12.9 | 0.15 | 0.20 | 0.18 | 94 | 1007.5 |
| 20260507010303 | 8 | 30 | 4.8 | 11.3 | 0.15 | 0.18 | 0.15 | 93 | 1007.5 |
| 20260507005806 | 8 | 4 | 3.2 | 11.3 | 0.15 | 0.18 | 0.15 | 93 | 1007.5 |
| 20260507005305 | 8 | 10 | 1.6 | 11.3 | 0.15 | 0.18 | 0.15 | 93 | 1007.5 |
| 20260507005058 | 8 | 1 | 1.6 | 11.3 | 0.15 | 0.18 | 0.15 | 93 | 1007.6 |
| 20260507004250 | 8 | 25 | 1.6 | 11.3 | 0.13 | 0.15 | 0.13 | 93 | 1007.5 |
| 20260507003748 | 8 | 28 | 1.6 | 11.3 | 0.13 | 0.15 | 0.13 | 93 | 1007.5 |
| 20260507003247 | 8 | 29 | 3.2 | 11.3 | 0.10 | 0.15 | 0.10 | 92 | 1007.6 |
| 20260507002745 | 8 | 4 | 1.6 | 9.7 | 0.08 | 0.13 | 0.08 | 92 | 1007.6 |
| 20260507002244 | 8 | 1 | 1.6 | 9.7 | 0.08 | 0.15 | 0.08 | 92 | 1007.5 |
| 20260507001743 | 9 | 44 | 1.6 | 9.7 | 0.05 | 0.13 | 0.05 | 92 | 1007.5 |
| 20260507001244 | 9 | 1 | 3.2 | 9.7 | 0.05 | 0.13 | 0.05 | 91 | 1007.6 |
| 20260507000740 | 9 | 9 | 1.6 | 8.0 | 0.05 | 0.13 | 0.03 | 91 | 1007.5 |
| 20260507000234 | 9 | 352 | 1.6 | 11.3 | 0.03 | 0.13 | 0.03 | 91 | 1007.6 |
| 20260506235732 | 9 | 358 | 1.6 | 11.3 | 0.00 | 0.15 | 0.00 | 90 | 1007.5 |
| 20260506235528 | 10 | 357 | 1.6 | 9.7 | 0.00 | 0.20 | 0.00 | 90 | 1007.5 |
| 20260506235031 | 10 | 12 | 0.0 | 6.4 | 0.00 | 0.23 | 0.00 | 90 | 1007.5 |
| 20260506234226 | 10 | 12 | 1.6 | 6.4 | 0.00 | 0.25 | 0.00 | 90 | 1007.5 |
| 20260506233717 | 10 | 23 | 1.6 | 8.0 | 0.00 | 0.33 | 0.00 | 90 | 1007.4 |
| 20260506233207 | 10 | 346 | 1.6 | 9.7 | 0.00 | 0.36 | 0.00 | 90 | 1007.3 |
| 20260506232957 | 10 | 359 | 1.6 | 9.7 | 0.00 | 0.43 | 0.00 | 90 | 1007.3 |
| 20260506232459 | 10 | 34 | 1.6 | 9.7 | 0.00 | 0.46 | 0.00 | 90 | 1007.3 |
| 20260506231705 | 10 | 1 | 1.6 | 11.3 | 0.00 | 0.51 | 0.00 | 90 | 1007.2 |
| 20260506231206 | 10 | 340 | 3.2 | 14.5 | 0.00 | 0.51 | 0.00 | 90 | 1007.2 |
| 20260506230947 | 10 | 8 | 3.2 | 14.5 | 0.00 | 0.64 | 0.00 | 90 | 1007.2 |
| 20260506230150 | 10 | 356 | 1.6 | 12.9 | 0.00 | 0.76 | 0.00 | 90 | 1007.3 |
| 20260506225650 | 10 | 1 | 1.6 | 11.3 | 0.00 | 0.79 | 0.00 | 90 | 1007.2 |
| 20260506225140 | 10 | 1 | 3.2 | 11.3 | 0.00 | 0.79 | 0.00 | 90 | 1007.1 |
| 20260506224633 | 10 | 35 | 3.2 | 11.3 | 0.00 | 0.79 | 0.00 | 90 | 1007.1 |
| 20260506224132 | 10 | 39 | 4.8 | 16.1 | 0.00 | 0.79 | 0.00 | 90 | 1007.2 |
| 20260506223626 | 10 | 43 | 6.4 | 16.1 | 0.00 | 0.79 | 0.00 | 90 | 1007.2 |
| 20260506223110 | 10 | 44 | 6.4 | 17.7 | 0.00 | 0.81 | 0.00 | 90 | 1007.0 |
| 20260506222606 | 10 | 41 | 6.4 | 17.7 | 0.00 | 0.81 | 0.00 | 90 | 1007.0 |
| 20260506222105 | 10 | 56 | 4.8 | 14.5 | 0.00 | 0.81 | 0.00 | 90 | 1007.0 |
| 20260506221605 | 10 | 53 | 4.8 | 14.5 | 0.00 | 0.81 | 0.00 | 90 | 1007.0 |
| 20260506221400 | 10 | 31 | 3.2 | 14.5 | 0.00 | 0.81 | 0.00 | 90 | 1007.0 |
| 20260506220606 | 10 | 72 | 1.6 | 11.3 | 0.00 | 0.81 | 0.00 | 90 | 1006.9 |
| 20260506220358 | 10 | 31 | 1.6 | 9.7 | 0.00 | 0.84 | 0.00 | 90 | 1007.0 |
| 20260506215558 | 10 | 33 | 3.2 | 9.7 | 0.00 | 0.86 | 0.84 | 90 | 1007.0 |
| 20260506215054 | 10 | 33 | 3.2 | 12.9 | 0.00 | 0.89 | 0.84 | 90 | 1006.8 |
| 20260506214555 | 10 | 0 | 3.2 | 12.9 | 0.00 | 0.91 | 0.84 | 89 | 1006.8 |
| 20260506214052 | 10 | 34 | 3.2 | 11.3 | 0.00 | 1.02 | 0.84 | 90 | 1006.6 |
| 20260506213552 | 11 | 306 | 3.2 | 11.3 | 0.00 | 1.30 | 0.84 | 90 | 1006.6 |
| 20260506213052 | 11 | 15 | 1.6 | 11.3 | 0.00 | 1.35 | 0.84 | 89 | 1006.6 |
| 20260506212550 | 11 | 359 | 1.6 | 11.3 | 0.00 | 1.35 | 0.84 | 89 | 1006.6 |
| 20260506212050 | 11 | 20 | 1.6 | 11.3 | 0.00 | 1.37 | 0.84 | 89 | 1006.5 |
| 20260506211850 | 11 | 2 | 1.6 | 12.9 | 0.00 | 1.40 | 0.84 | 89 | 1006.5 |
| 20260506211355 | 11 | 1 | 1.6 | 12.9 | 0.00 | 1.40 | 0.84 | 89 | 1006.4 |
| 20260506210538 | 11 | 48 | 3.2 | 12.9 | 0.00 | 1.40 | 0.84 | 89 | 1006.4 |
| 20260506210039 | 11 | 15 | 3.2 | 12.9 | 0.00 | 1.40 | 0.84 | 89 | 1006.4 |
| 20260506205538 | 11 | 14 | 1.6 | 9.7 | 0.00 | 1.40 | 0.84 | 89 | 1006.2 |
| 20260506205033 | 11 | 358 | 1.6 | 12.9 | 0.00 | 1.40 | 0.84 | 89 | 1006.3 |
| 20260506204531 | 11 | 0 | 3.2 | 12.9 | 0.00 | 1.40 | 0.84 | 89 | 1006.3 |
| 20260506204033 | 11 | 1 | 4.8 | 16.1 | 0.00 | 1.40 | 0.84 | 88 | 1006.3 |
| 20260506203531 | 11 | 1 | 4.8 | 16.1 | 0.00 | 1.40 | 0.84 | 88 | 1006.3 |
| 20260506203031 | 11 | 0 | 3.2 | 11.3 | 0.00 | 1.40 | 0.84 | 89 | 1006.3 |
| 20260506202836 | 11 | 0 | 3.2 | 9.7 | 0.00 | 1.40 | 0.84 | 89 | 1006.3 |
| 20260506202326 | 11 | 27 | 4.8 | 12.9 | 0.00 | 1.40 | 0.84 | 89 | 1006.4 |
| 20260506201533 | 11 | 27 | 3.2 | 12.9 | 0.00 | 1.40 | 0.84 | 88 | 1006.4 |
| 20260506201022 | 12 | 50 | 3.2 | 12.9 | 0.00 | 1.40 | 0.84 | 88 | 1006.4 |
| 20260506200514 | 12 | 56 | 3.2 | 11.3 | 0.00 | 1.40 | 0.84 | 88 | 1006.4 |
| 20260506200308 | 12 | 342 | 3.2 | 11.3 | 0.00 | 1.40 | 0.84 | 88 | 1006.3 |
| 20260506195801 | 12 | 307 | 3.2 | 11.3 | 0.00 | 1.40 | 0.84 | 89 | 1006.4 |
| 20260506194951 | 12 | 34 | 1.6 | 11.3 | 0.00 | 1.40 | 0.84 | 89 | 1006.0 |
| 20260506194450 | 12 | 18 | 1.6 | 9.7 | 0.00 | 1.40 | 0.84 | 89 | 1005.9 |
| 20260506193952 | 12 | 23 | 1.6 | 8.0 | 0.00 | 1.40 | 0.84 | 89 | 1005.8 |
| 20260506193445 | 12 | 1 | 0.0 | 8.0 | 0.00 | 1.40 | 0.84 | 89 | 1005.8 |
| 20260506192939 | 12 | 0 | 1.6 | 11.3 | 0.00 | 1.40 | 0.84 | 89 | 1005.8 |
| 20260506192439 | 12 | 340 | 1.6 | 11.3 | 0.00 | 1.40 | 0.84 | 89 | 1005.8 |
| 20260506192239 | 12 | 359 | 1.6 | 11.3 | 0.00 | 1.40 | 0.84 | 89 | 1005.7 |